INTELSAT 20 (IS-20)

Last updated on Sept. 20, 2020, 5:45 a.m. UTC

1 38740U 12043A   20263.60434659 -.00000040  00000-0  00000+0 0  9996
2 38740   0.0187 157.3796 0002005  29.8209  97.8340  1.00272888 29801
UTC
Height (km)
Latitude
Longitude
Inclination
Orbital Period
UTC large
Height (km)
Speed (km/s)
/
Latitude / Longitude
Inclination (degrees)
Orbital Period (minutes)
Azimuth
Elevation
Range (km)
Doppler Factor
iOS Compass Heading
iOS Angle

Next 30 passes for location: Hong Kong

Rise time Rise Azimuth (degrees) Set time Set Azimuth (degrees) Duration Max altitude (degrees)

No matching passes for this satellites